Location: Melita
(38.4566°N, 122.6369°W)
Time: 05:31:08
(UTC+00:00)

ATLAS 3B R/B - Pass Details

Date: 24 January 2020
Orbit: 1020 x 1175 km, 63.8° (Epoch: 20 February)

Event Time Altitude Azimuth Distance (km) Brightness Sun altitude
Exits shadow 13:35:00 11° 337° (NNW) 2,758 4.6 -20.9°
Maximum altitude 13:41:18 53° 52° (NE) 1,304 3.4 -19.7°
Drops below altitude 10° 13:48:07 10° 129° (SE) 2,961 5.9 -18.4°
Sets 13:50:55 0° 134° (SE) 3,939 6.6 -17.9°
